VE3WXA Weather Reports


time (UTC)temp
F
wind
direction
speed
knots
gust
knots
rain 1hr
in
rain 24hr
in
rain mn
in
humidity
%
barometer
mb
20260506044703 49 221 1.7 4.3 0.00 0.09 0.00 91 1007.3
20260506044205 49 229 0.9 4.3 0.00 0.09 0.00 91 1007.3
20260506043704 49 234 1.7 5.2 0.00 0.09 0.00 91 1007.4
20260506043203 49 263 1.7 5.2 0.00 0.09 0.00 91 1007.4
20260506042703 49 219 1.7 4.3 0.00 0.09 0.00 92 1007.3
20260506042204 49 163 1.7 3.5 0.00 0.09 0.00 92 1007.3
20260506041945 49 243 0.9 3.5 0.00 0.09 0.00 94 1007.4
20260506041203 49 215 1.7 6.1 0.00 0.09 0.00 94 1007.4
20260506040703 49 0 1.7 6.1 0.00 0.09 0.00 94 1007.3
20260506040204 49 219 1.7 4.3 0.00 0.09 0.00 94 1007.4
20260506035702 49 230 1.7 4.3 0.00 0.09 0.09 94 1007.3
20260506035202 49 177 1.7 3.5 0.00 0.09 0.09 94 1007.3
20260506034702 49 236 1.7 3.5 0.00 0.09 0.09 94 1007.3
20260506034202 49 241 1.7 5.2 0.00 0.09 0.09 94 1007.3
20260506034018 50 217 1.7 4.3 0.00 0.09 0.09 93 1007.2
20260506033725 50 259 1.7 5.2 0.00 0.09 0.09 94 1007.3
20260506032702 50 229 1.7 4.3 0.00 0.09 0.09 93 1007.2
20260506032203 50 231 1.7 4.3 0.00 0.09 0.09 93 1007.2
20260506031702 50 230 1.7 4.3 0.00 0.09 0.09 93 1007.3
20260506031202 50 242 1.7 4.3 0.00 0.09 0.09 93 1007.3
20260506030702 50 128 1.7 4.3 0.00 0.09 0.09 94 1007.4
20260506030201 50 235 1.7 5.2 0.00 0.09 0.09 93 1007.7
20260506025702 50 239 1.7 5.2 0.00 0.09 0.09 93 1007.7
20260506025202 50 232 1.7 4.3 0.00 0.09 0.09 93 1007.5
20260506024944 50 210 1.7 4.3 0.00 0.09 0.09 93 1007.4
20260506024445 50 234 0.9 3.5 0.00 0.09 0.09 93 1007.5
20260506023701 50 209 0.9 2.6 0.00 0.09 0.09 92 1007.4
20260506023203 50 229 0.9 2.6 0.00 0.09 0.09 92 1007.4
20260506022703 50 228 0.9 2.6 0.00 0.09 0.09 91 1007.3
20260506022202 50 0 0.9 3.5 0.00 0.09 0.09 91 1007.2
20260506021702 50 229 0.9 3.5 0.00 0.09 0.09 91 1007.2
20260506021447 50 223 0.9 2.6 0.00 0.09 0.09 90 1007.2
20260506020703 50 237 0.9 2.6 0.00 0.09 0.09 90 1007.3
20260506020446 50 228 0.9 3.5 0.00 0.09 0.09 90 1007.3
20260506015703 50 0 0.9 3.5 0.00 0.09 0.09 89 1007.4
20260506015445 50 208 0.0 1.7 0.00 0.09 0.09 89 1007.2
20260506014701 50 172 0.0 1.7 0.00 0.09 0.09 89 1007.2
20260506014201 50 0 0.0 2.6 0.00 0.09 0.09 89 1007.2
20260506013701 50 215 0.0 2.6 0.00 0.09 0.09 89 1007.2
20260506013202 50 235 0.0 1.7 0.00 0.11 0.09 89 1007.3
20260506012702 50 0 0.0 1.7 0.00 0.11 0.09 89 1007.3
20260506012445 50 0 0.0 1.7 0.00 0.11 0.09 88 1007.3
20260506011702 50 200 0.0 1.7 0.00 0.11 0.09 88 1007.3
20260506011203 50 164 0.0 1.7 0.00 0.11 0.09 89 1007.2
20260506010703 50 0 0.0 1.7 0.00 0.11 0.09 88 1007.1
20260506010203 50 237 0.0 1.7 0.00 0.11 0.09 88 1007.1
20260506005946 50 0 0.0 1.7 0.00 0.11 0.09 88 1007.1
20260506005203 51 0 0.0 1.7 0.00 0.11 0.09 88 1007.0
20260506004702 51 211 0.0 1.7 0.00 0.11 0.09 87 1007.0
20260506004202 51 0 0.0 1.7 0.00 0.11 0.09 87 1007.0
20260506003702 51 0 0.0 1.7 0.00 0.11 0.09 87 1006.8
20260506003200 51 0 0.0 1.7 0.00 0.11 0.09 86 1006.9
20260506002701 51 211 0.0 1.7 0.00 0.11 0.09 86 1006.9
20260506002202 51 0 0.0 1.7 0.00 0.11 0.09 85 1006.8
20260506001701 51 0 0.0 1.7 0.00 0.11 0.09 85 1006.8
20260506001201 51 0 0.0 1.7 0.00 0.11 0.09 84 1006.7
20260506000701 52 133 0.0 2.6 0.00 0.11 0.09 84 1006.6
20260506000201 52 0 0.9 2.6 0.00 0.11 0.09 84 1006.5
20260505235950 52 156 0.0 2.6 0.00 0.11 0.09 84 1006.5
20260505235201 52 0 0.0 2.6 0.00 0.11 0.09 84 1006.4
20260505234701 52 0 0.9 1.7 0.00 0.11 0.09 84 1006.3
20260505234202 52 0 0.0 1.7 0.00 0.11 0.09 84 1006.3
20260505233701 52 0 0.0 1.7 0.00 0.11 0.09 84 1006.4
20260505233200 52 138 0.0 1.7 0.00 0.11 0.09 84 1006.4
20260505232700 52 0 0.0 1.7 0.00 0.11 0.09 83 1006.4
20260505232200 52 167 0.0 1.7 0.00 0.11 0.09 83 1006.4
20260505231949 52 0 0.0 0.0 0.00 0.11 0.09 83 1006.5
20260505231201 52 0 0.0 1.7 0.00 0.11 0.09 83 1006.5
20260505230701 52 0 0.9 2.6 0.00 0.11 0.09 83 1006.4
20260505230200 52 0 0.9 2.6 0.00 0.11 0.09 82 1006.5
20260505225949 52 210 0.9 3.5 0.00 0.11 0.09 83 1006.5
20260505225202 52 229 0.9 3.5 0.00 0.11 0.09 82 1006.6
20260505224702 52 231 0.9 3.5 0.00 0.11 0.09 82 1006.6
20260505224203 52 228 1.7 3.5 0.00 0.11 0.09 81 1006.6
20260505223701 52 220 1.7 3.5 0.00 0.11 0.09 80 1006.7
20260505223201 52 187 0.9 3.5 0.00 0.11 0.09 81 1006.7
20260505222701 53 235 0.9 3.5 0.00 0.11 0.09 80 1006.6
20260505222201 53 180 0.9 3.5 0.00 0.11 0.09 80 1006.6
20260505221701 53 186 0.9 3.5 0.00 0.11 0.09 82 1006.6
20260505221201 52 224 0.9 3.5 0.00 0.11 0.09 81 1006.5
20260505220701 52 240 0.9 3.5 0.00 0.11 0.09 80 1006.5
20260505220201 52 212 0.9 3.5 0.00 0.11 0.09 80 1006.5
20260505215948 52 0 0.9 3.5 0.00 0.11 0.09 81 1006.6
20260505215202 52 234 1.7 4.3 0.00 0.11 0.09 81 1006.6
20260505214702 52 0 1.7 4.3 0.00 0.11 0.09 80 1006.6
20260505214201 52 0 1.7 5.2 0.00 0.11 0.09 81 1006.5
20260505213701 52 219 1.7 5.2 0.00 0.11 0.09 80 1006.6
20260505213201 52 221 1.7 3.5 0.00 0.11 0.09 80 1006.5
20260505212701 51 214 0.9 3.5 0.00 0.11 0.09 79 1006.5
20260505212200 51 0 0.0 1.7 0.00 0.11 0.09 80 1006.7
20260505211701 51 0 0.0 3.5 0.00 0.11 0.09 80 1006.8
20260505211201 51 0 0.9 4.3 0.00 0.11 0.09 80 1006.8
20260505210701 51 0 1.7 4.3 0.00 0.11 0.09 80 1006.7
20260505210201 51 233 0.9 3.5 0.00 0.11 0.09 80 1006.7
20260505205701 51 154 0.0 1.7 0.00 0.11 0.09 82 1006.6
20260505205449 51 185 0.0 1.7 0.00 0.11 0.09 81 1006.7
20260505204701 51 0 0.0 1.7 0.00 0.11 0.09 82 1006.8
20260505204201 51 326 0.0 1.7 0.00 0.11 0.09 81 1006.8
20260505203701 51 0 0.0 1.7 0.00 0.11 0.09 82 1006.9
20260505203201 51 0 0.0 2.6 0.00 0.11 0.09 81 1006.8
20260505202702 51 238 0.0 2.6 0.00 0.11 0.09 82 1006.9
20260505202202 51 0 0.0 2.6 0.00 0.11 0.09 82 1006.8
20260505201702 50 0 0.0 1.7 0.00 0.11 0.09 81 1006.9
20260505201202 50 0 0.0 2.6 0.00 0.11 0.09 81 1007.1
20260505200701 50 0 0.9 3.5 0.00 0.11 0.09 82 1007.2
20260505200201 50 103 0.9 3.5 0.00 0.11 0.09 81 1007.2
20260505195951 50 186 0.9 3.5 0.00 0.11 0.09 82 1007.2
20260505195201 50 0 0.9 3.5 0.00 0.11 0.09 83 1007.1
20260505194700 50 0 0.9 3.5 0.00 0.11 0.09 82 1007.1
20260505194201 50 0 0.0 1.7 0.00 0.11 0.09 82 1007.1
20260505193702 50 0 0.0 3.5 0.00 0.11 0.09 82 1007.2
20260505193203 50 0 0.9 3.5 0.01 0.11 0.09 82 1007.0
20260505192703 50 226 0.9 3.5 0.02 0.11 0.09 81 1006.9
20260505192202 50 252 0.0 2.6 0.02 0.11 0.09 82 1006.9
20260505191702 50 242 0.0 1.7 0.02 0.11 0.09 83 1006.7
20260505191202 49 0 0.0 1.7 0.02 0.11 0.09 83 1006.8
20260505190701 49 0 0.9 3.5 0.02 0.11 0.09 84 1006.9
20260505190201 49 205 0.9 3.5 0.03 0.11 0.09 80 1006.8
20260505185701 49 238 0.9 3.5 0.04 0.11 0.09 82 1006.8
20260505185244 49 266 0.0 1.7 0.07 0.11 0.09 84 1006.7
20260505185226 49 0 0.0 2.6 0.06 0.11 0.09 82 1006.7
20260505184204 49 0 0.0 3.5 0.07 0.11 0.09 82 1007.0
20260505183706 49 0 0.9 3.5 0.07 0.11 0.09 79 1007.1
20260505183202 49 237 0.9 3.5 0.07 0.10 0.08 78 1007.1
20260505182701 50 258 0.9 2.6 0.07 0.10 0.08 80 1006.6
20260505182201 50 134 0.9 2.6 0.07 0.10 0.08 79 1006.5
20260505181701 50 192 0.0 2.6 0.07 0.10 0.08 79 1006.3
20260505181443 49 0 0.0 1.7 0.07 0.10 0.08 77 1006.1
20260505180701 49 0 0.0 1.7 0.07 0.09 0.07 79 1006.8
20260505180201 49 0 0.0 2.6 0.06 0.08 0.06 77 1007.0
20260505175701 50 0 0.0 3.5 0.05 0.07 0.05 75 1006.9
20260505175446 50 136 0.0 3.5 0.03 0.06 0.04 69 1006.9
20260505174701 50 0 0.0 1.7 0.02 0.05 0.02 67 1006.8
20260505174201 51 0 0.0 1.7 0.02 0.04 0.02 69 1006.8
20260505173702 51 0 0.0 2.6 0.01 0.04 0.02 69 1006.8
20260505173202 51 323 0.0 2.6 0.01 0.04 0.02 71 1006.9
20260505172701 51 0 0.9 3.5 0.00 0.03 0.01 64 1007.1
20260505172201 52 0 0.9 3.5 0.00 0.03 0.01 67 1007.3
20260505171946 53 292 0.9 3.5 0.00 0.03 0.01 63 1007.2
20260505171201 53 257 0.9 5.2 0.00 0.03 0.01 59 1006.7
20260505170701 53 271 0.9 5.2 0.00 0.03 0.01 58 1006.6
20260505170204 53 81 0.9 4.3 0.00 0.03 0.01 58 1006.3
20260505165705 54 358 1.7 6.1 0.00 0.03 0.01 57 1006.1
20260505165203 55 51 1.7 6.1 0.00 0.03 0.01 56 1005.7
20260505164703 55 307 0.9 3.5 0.00 0.03 0.01 57 1005.5
20260505164445 55 73 0.9 3.5 0.00 0.03 0.01 57 1005.6
20260505163703 54 341 1.7 7.0 0.00 0.03 0.01 56 1005.8
20260505163202 54 329 1.7 7.0 0.00 0.03 0.01 57 1005.8
20260505162703 54 294 0.9 3.5 0.00 0.03 0.01 57 1005.6
20260505162202 54 0 0.9 5.2 0.00 0.03 0.01 56 1005.9
20260505161702 55 77 0.9 5.2 0.00 0.03 0.01 57 1005.8
20260505161202 55 261 0.9 5.2 0.00 0.03 0.01 56 1005.7
20260505160702 55 0 1.7 5.2 0.00 0.03 0.01 56 1005.4
20260505160202 55 339 1.7 4.3 0.00 0.03 0.01 55 1005.1
20260505152703 54 221 1.7 6.1 0.00 0.03 0.01 56 1005.9
20260505152203 54 253 1.7 5.2 0.00 0.03 0.01 57 1005.9
20260505151703 54 292 2.6 7.0 0.00 0.03 0.01 57 1005.5
20260505151448 54 353 2.6 7.0 0.00 0.03 0.01 56 1005.3
20260505150702 53 318 2.6 6.1 0.00 0.03 0.01 59 1005.6
20260505150202 54 292 1.7 5.2 0.00 0.03 0.01 60 1005.9
20260505140203 54 307 1.7 6.1 0.00 0.03 0.01 57 1003.7
20260505124702 50 175 1.7 4.3 0.00 0.03 0.01 69 1003.0
20260505124202 49 61 1.7 3.5 0.00 0.03 0.01 69 1002.8
20260505123949 49 28 1.7 4.3 0.00 0.03 0.01 71 1002.9
20260505123202 48 23 1.7 5.2 0.00 0.03 0.01 72 1003.5
20260505122950 48 175 1.7 5.2 0.00 0.03 0.01 72 1003.5
20260505122202 48 308 1.7 7.0 0.00 0.03 0.01 72 1003.5
20260505121703 48 302 1.7 7.0 0.00 0.03 0.01 73 1003.4
20260505121237 48 326 1.7 4.3 0.00 0.03 0.01 75 1003.0
20260505121227 48 333 1.7 5.2 0.00 0.03 0.01 74 1003.1
20260505120203 47 286 0.9 2.6 0.00 0.03 0.01 75 1002.8
20260505115702 47 317 1.7 4.3 0.00 0.03 0.01 77 1002.6
20260505115202 47 0 1.7 4.3 0.00 0.03 0.01 78 1002.7
20260505114702 46 302 1.7 6.1 0.00 0.03 0.01 79 1002.8
20260505114202 46 297 1.7 6.1 0.00 0.03 0.01 79 1002.8
20260505113702 46 294 1.7 6.1 0.00 0.03 0.01 81 1002.5
20260505113451 46 308 1.7 6.1 0.00 0.03 0.01 85 1002.7
20260505112702 46 55 1.7 6.1 0.00 0.03 0.01 85 1002.6
20260505112202 46 317 1.7 6.1 0.00 0.03 0.01 85 1002.2
20260505111948 46 310 1.7 5.2 0.00 0.03 0.01 86 1002.2
20260505111203 47 336 1.7 4.3 0.00 0.03 0.01 87 1002.1
20260505110703 47 309 1.7 5.2 0.00 0.03 0.01 88 1002.0
20260505110203 47 355 0.9 5.2 0.00 0.03 0.01 88 1001.9
20260505102203 56 300 0.9 4.3 0.00 0.03 0.01 89 1000.4
20260505101951 56 0 0.9 4.3 0.00 0.03 0.01 88 1000.5
20260505101203 56 162 0.9 4.3 0.00 0.03 0.01 88 1000.4
20260505100951 57 223 0.9 3.5 0.00 0.03 0.01 88 1000.3
20260505100202 57 349 0.9 6.1 0.00 0.03 0.01 87 1000.3
20260505095702 57 219 1.7 6.1 0.00 0.03 0.01 87 1000.2
20260505095202 57 246 1.7 5.2 0.00 0.03 0.01 87 1000.1
20260505094703 57 350 0.9 5.2 0.00 0.03 0.01 87 999.9
20260505094202 57 230 0.9 4.3 0.00 0.03 0.01 87 999.9
20260505093702 57 303 1.7 7.0 0.00 0.03 0.01 86 999.8
20260505093202 57 137 1.7 7.0 0.00 0.03 0.01 86 999.8
20260505092702 57 214 1.7 6.1 0.00 0.03 0.01 86 999.7
20260505092202 57 164 1.7 5.2 0.00 0.03 0.01 86 999.7
20260505091951 57 307 1.7 5.2 0.00 0.03 0.01 86 999.6
20260505091450 57 289 1.7 5.2 0.00 0.03 0.01 86 999.6
20260505090703 58 245 1.7 6.1 0.00 0.03 0.01 86 999.5
20260505090202 58 192 1.7 6.1 0.00 0.03 0.01 85 999.5
20260505090031 58 175 1.7 6.1 0.00 0.03 0.01 85 999.4
20260505090026 58 221 1.7 6.1 0.00 0.03 0.01 85 999.5
20260505084949 58 127 1.7 6.1 0.00 0.03 0.01 85 999.4
20260505084244 58 220 0.9 6.1 0.00 0.03 0.01 84 999.2
20260505084229 58 225 0.9 6.1 0.00 0.03 0.01 85 999.4
20260505083203 58 0 0.9 4.3 0.00 0.03 0.01 84 999.2
20260505082702 58 270 1.7 4.3 0.00 0.03 0.01 84 999.3
20260505082449 58 187 0.9 4.3 0.00 0.03 0.01 84 999.2
20260505081702 58 152 0.0 2.6 0.00 0.03 0.01 83 999.4
20260505081202 58 0 0.9 4.3 0.00 0.03 0.01 83 999.1
20260505080702 59 0 0.9 5.2 0.00 0.03 0.01 82 999.0
20260505080202 59 265 1.7 5.2 0.00 0.03 0.01 82 998.5
20260505075950 59 236 1.7 4.3 0.00 0.03 0.01 82 998.5
20260505075202 59 0 1.7 5.2 0.00 0.03 0.01 81 998.4
20260505074745 59 280 1.7 7.0 0.00 0.03 0.01 80 998.4
20260505074730 59 261 1.7 6.1 0.00 0.03 0.01 81 998.4
20260505073702 59 197 1.7 7.0 0.00 0.03 0.01 80 998.5
20260505073202 59 206 1.7 7.0 0.00 0.03 0.01 80 998.6
20260505073024 59 0 1.7 7.0 0.01 0.03 0.01 80 998.7
20260505072729 59 291 1.7 6.1 0.00 0.03 0.01 80 998.7
20260505071701 60 0 1.7 7.0 0.01 0.03 0.01 79 998.7
20260505071202 60 247 1.7 7.0 0.01 0.03 0.01 79 998.7
20260505070945 60 271 1.7 5.2 0.01 0.03 0.01 79 998.6
20260505070202 60 294 1.7 8.7 0.01 0.03 0.01 79 998.6
20260505065702 60 105 1.7 8.7 0.01 0.03 0.01 79 998.7
20260505065202 60 227 1.7 7.0 0.01 0.03 0.01 79 998.9
20260505064702 60 323 1.7 7.0 0.01 0.03 0.01 79 998.7
20260505064202 61 242 1.7 5.2 0.01 0.03 0.01 79 998.7
20260505063701 61 239 1.7 5.2 0.01 0.03 0.01 78 998.9
20260505063204 62 328 2.6 6.1 0.01 0.03 0.00 77 998.9
20260505062945 62 217 2.6 7.0 0.00 0.02 0.00 76 999.0
20260505062444 62 172 2.6 7.0 0.00 0.02 0.00 75 998.7
20260505061703 62 163 2.6 8.7 0.00 0.02 0.00 75 999.0
20260505061202 62 316 2.6 8.7 0.00 0.02 0.00 75 999.0
20260505060702 62 183 2.6 7.8 0.00 0.02 0.00 74 999.1
20260505060203 63 186 2.6 8.7 0.00 0.02 0.00 74 999.3
20260505055702 63 235 3.5 9.6 0.00 0.02 0.00 74 999.4
20260505055203 63 229 4.3 11.3 0.00 0.02 0.00 73 999.4
20260505054703 63 168 3.5 11.3 0.00 0.02 0.00 73 999.4
20260505054203 63 238 3.5 11.3 0.00 0.02 0.00 73 999.4
20260505053703 62 229 3.5 9.6 0.00 0.02 0.00 73 999.4
20260505053203 62 218 2.6 9.6 0.00 0.02 0.00 73 999.2
20260505052702 62 243 2.6 7.0 0.00 0.02 0.00 75 999.4
20260505052202 62 190 2.6 7.8 0.00 0.02 0.00 75 999.4
20260505051703 61 205 3.5 7.8 0.00 0.02 0.00 76 999.5
20260505051204 62 228 3.5 7.8 0.00 0.02 0.00 76 999.5
20260505050704 62 232 3.5 7.8 0.00 0.02 0.00 75 999.5
20260505050203 61 243 3.5 7.0 0.00 0.02 0.00 76 999.4